Weather Roundup
Issued by NWS Chicago, IL

Home | Current Version | Previous Version | Text Only | Print | Product List | Glossary Off
Versions: 1 2 3 4 5 6 7 8 9 10 11 12 13 14 15 16 17 18 19 20 21 22 23 24 25 26 27 28 29 30 31 32 33 34 35 36 37 38 39 40 41 42 43 44 45 46 47 48 49 50

000
NZUS59 KLOT 260206
HRRLOT

CHICAGO AREA WEATHER ROUNDUP
NATIONAL WEATHER SERVICE CHICAGO/ROMEOVILLE IL
800 PM CST TUE NOV 25 2014

NOTE: "FAIR" INDICATES FEW OR NO CLOUDS BELOW 12,000 FEET WITH NO
SIGNIFICANT WEATHER AND/OR OBSTRUCTIONS TO VISIBILITY.

* THESE STATIONS ARE NOT UNDER NWS QUALITY CONTROL. THEY ALSO MAY NOT
  REPORT WEATHER SUCH AS PRECIPITATION OR FOG.

ILZ005-006-012>014-019>023-260300-
NORTHEAST ILLINOIS

CITY           SKY/WX    TMP DP  RH WIND       PRES   REMARKS
OHARE          PTCLDY    18  14  84 SW5       30.17S WCI  11
MIDWAY         PTCLDY    23  17  78 SW6       30.18S WCI  16
AURORA         CLEAR     15   9  76 CALM      30.19R HAZE
LANSING*       CLOUDY    24  19  81 S3        30.19S
JOLIET*        PTCLDY    21  17  84 CALM      30.19S
WAUKEGAN       MOCLDY    18  13  80 SW3       30.16R
DUPAGE AIRPORT CLEAR     16  13  88 CALM      30.17R
WHEELING       CLEAR     20  14  77 S6        30.19S WCI  12
KANKAKEE*      CLOUDY   N/A N/A N/A CALM      30.21R
MORRIS*        PTCLDY    19  18  94 S3        30.19R
LEWIS AIRPORT* MOCLDY    19  16  89 SW6       30.19R WCI  11
NORTHERLY IS     N/A     23  17  78 SW2         N/A
$$

WIZ051-052-058>065-066-070>072-260300-
SOUTHEAST WISCONSIN

CITY           SKY/WX    TMP DP  RH WIND       PRES   REMARKS
MILWAUKEE      CLOUDY    21  15  78 SW5       30.16R WCI  15
KENOSHA*       CLOUDY    21  16  81 W6        30.16R WCI  13
RACINE*        CLOUDY    21  15  78 W3        30.18R
BURLINGTON     CLOUDY    18  14  87 CALM      30.15R
WAUKESHA       CLOUDY    18  16  93 SW5       30.15R WCI  11
WEST BEND      CLOUDY    21  16  79 SW5       30.13R WCI  15
$$

INZ001>003-010>013-019-020-260300-
NORTHWEST INDIANA

CITY           SKY/WX    TMP DP  RH WIND       PRES   REMARKS
GARY*          CLOUDY    25  18  74 CALM      30.19F
MICHIGAN CITY* NOT AVBL
RENSSELAER*    NOT AVBL
VALPARAISO     CLOUDY    23  16  74 S3        30.20R
$$

LMZ740>746-260300-
SOUTHERN LAKE MICHIGAN

STATION/POSITION TIME  SKY/WX   TEMP WIND        PRES    VSBY
                                AIR  DIR/SP/G
                 (UTC)          (F)  (DEG/KT/KT) (MB)    (MI)
HARRISON CRIB    0200            24  200/  9/ 11   N/A
BURNHAM HARBOR   0200            23  190/  6/  7   N/A
CALUMET HARBOR   0100            23  200/  6/  7 1021.0R
BURNS HARBOR     NOT AVBL
MICHIGAN CITY    0200            25  170/  9/ 10   N/A
$$

ABBREVIATIONS USED IN REMARKS
   TC - TEMPERATURE IN CELSIUS
  WCI - WIND CHILL INDEX
   HX - HEAT INDEX
  VSB - VISIBILITY
$$



USA.gov is the U.S. government's official web portal to all federal, state and local government web resources and services.